Regional Weather Roundup
Issued by NWS Cleveland, OH

Home | Current Version | Previous Version | Graphics & Text | Print | Product List | Glossary On
Versions: 1 2 3 4 5 6 7 8 9 10 11 12 13 14 15 16 17 18 19 20 21 22 23 24 25 26 27 28 29 30 31 32 33 34 35 36 37 38 39 40 41 42 43 44 45 46 47 48 49 50
000
ASUS41 KCLE 240700
RWRCLE
OHIO REGIONAL WEATHER ROUNDUP
NATIONAL WEATHER SERVICE WILMINGTON, OH
200 AM EST SAT FEB 24 2018

NOTE: "FAIR" INDICATES FEW OR NO CLOUDS BELOW 12,000 FEET WITH NO
SIGNIFICANT WEATHER AND/OR OBSTRUCTIONS TO VISIBILITY.

OHZ001>008-015>018-024>027-034-035-043-044-240800-
   NORTHWEST OHIO

CITY           SKY/WX    TMP DP  RH WIND       PRES   REMARKS
DEFIANCE       CLOUDY    39  36  89 N8        30.23S
FINDLAY        CLOUDY    45  39  79 NW8       30.20S
TOLEDO EXPRESS CLOUDY    40  38  93 N6        30.21F
TOLEDO EXEC    CLOUDY    42  36  79 NW12      30.23S
LIMA           CLOUDY    43  42  97 W3        30.21R
$$

OHZ009>014-019>023-028>033-038-089-240800-
   NORTHEAST OHIO

CITY           SKY/WX    TMP DP  RH WIND       PRES   REMARKS
CLE-HOPKINS    CLOUDY    45  42  89 N14       30.24S
CLE-LAKEFRONT  CLOUDY    40  38  93 CALM      30.22S
CUY CO. ARPT   NOT AVBL
LORAIN-ELYRIA  CLOUDY    43  37  79 N10       30.22S
ASHTABULA      CLOUDY    44  41  89 W5        30.22R
AKRON-CANTON   CLOUDY    49  44  83 NW8       30.20R
WOOSTER        NOT AVBL
MANSFIELD      CLOUDY    46  43  89 NW5       30.21R
YOUNGSTOWN     CLOUDY    46  44  93 N9        30.18F
$$

OHZ042-051>053-060>062-070>072-077>081-240800-
  SOUTHWEST OHIO

CITY           SKY/WX    TMP DP  RH WIND       PRES   REMARKS
CINC-COVINGTON CLOUDY    52  51  97 N7        30.15F
CINC-LUNKEN    CLOUDY    53  51  93 NE5       30.17F
HAMILTON       LGT RAIN  51  50  96 N6        30.18F
DAYTON         NOT AVBL
WRIGHT-PAT AFB NOT AVBL
DAYTON GENERAL LGT RAIN  50  46  86 CALM      30.18F
WILMINGTON     LGT RAIN  50  50 100 N8        30.18S
$$

OHZ036-037-039>041-045>050-054>059-063>069-073>076-082>088-240800-
  CENTRAL AND SOUTHEAST OHIO

CITY           SKY/WX    TMP DP  RH WIND       PRES   REMARKS
COLUMBUS       MOCLDY    50  47  89 N6        30.18S
OSU AIRPORT    CLOUDY    49  48  97 N7        30.18F
BOLTON FIELD   CLOUDY    49  47  93 N5        30.19S
RICKENBACK AFB NOT AVBL
NEWARK         MOCLDY    50  46  86 N6        30.18F
MARION         CLOUDY    46  43  89 N7        30.21R
LANCASTER      MOCLDY    51  49  92 N3        30.18S
ZANESVILLE     MOCLDY    54  50  86 N6        30.17F
NEW PHILLY     CLOUDY    52  47  83 NW8       30.19S
$$



USA.gov is the U.S. government's official web portal to all federal, state and local government web resources and services.